Location: Oberwangen
(47.4286°N, 8.9679°E)
Time: 12:58:49
(UTC+00:00)

Meteor 2-10 Rocket - Pass Details

Date: 20 June 2021
Orbit: 734 x 885 km, 81.2° (Epoch: 02 August)

Event Time Altitude Azimuth Distance (km) Brightness Sun altitude
Rises 21:32:04 0° 348° (NNW) 3,216 8.3 -14.6°
Reaches altitude 10° 21:34:27 10° 348° (NNW) 2,273 7.2 -14.8°
Maximum altitude 21:39:32 89° 261° (W) 744 3.4 -15.2°
Enters shadow 21:42:36 24° 171° (S) 1,493 4.4 -15.4°
